FW6303 Weather Reports


time (UTC)temp
C
wind
direction
speed
KPH
gust
KPH
rain 1hr
cm
rain 24hr
cm
rain mn
cm
humidity
%
barometer
mb
20260507160052 20 65 1.6 4.8 0.00 1.70 1.45 85 1013.0
20260507155027 20 29 1.6 4.8 0.00 1.70 1.45 86 1012.6
20260507154035 20 31 1.6 3.2 0.00 1.70 1.45 87 1012.5
20260507153028 20 36 1.6 3.2 0.00 1.70 1.45 86 1012.4
20260507152035 20 28 3.2 4.8 0.00 1.70 1.45 85 1012.3
20260507151048 20 40 1.6 4.8 0.00 1.70 1.45 91 1012.0
20260507150037 18 53 0.0 1.6 0.00 1.70 1.45 93 1012.3
20260507145027 18 55 0.0 1.6 0.00 1.70 1.45 94 1012.2
20260507144032 18 54 0.0 1.6 0.03 1.70 1.45 95 1012.3
20260507143027 18 169 1.6 3.2 0.10 1.70 1.45 94 1012.6
20260507142031 18 14 3.2 6.4 0.36 1.70 1.45 94 1012.3
20260507141026 18 31 3.2 4.8 0.43 1.70 1.45 94 1011.9
20260507140031 18 69 0.0 1.6 0.43 1.70 1.45 96 1011.8
20260507135023 17 33 1.6 3.2 0.43 1.70 1.45 96 1012.3
20260507134034 17 35 1.6 3.2 0.41 1.68 1.42 95 1012.3
20260507133024 17 38 1.6 3.2 0.33 1.60 1.35 95 1012.2
20260507132055 17 47 0.0 1.6 0.08 1.35 1.02 95 1011.7
20260507131027 17 43 0.0 3.2 0.05 1.27 0.94 95 1011.4
20260507130037 17 35 0.0 3.2 0.08 1.27 0.94 95 1011.6
20260507125027 17 3 4.8 14.5 0.08 1.27 0.94 95 1011.7
20260507124033 17 356 8.0 14.5 0.08 1.27 0.94 94 1011.6
20260507123023 18 357 9.7 17.7 0.08 1.27 0.94 94 1011.6
20260507122035 19 3 6.4 12.9 0.13 1.27 0.94 94 1010.8
20260507121023 20 29 1.6 6.4 0.13 1.22 0.89 95 1010.8
20260507120036 20 314 3.2 6.4 0.10 1.19 0.86 95 1010.2
20260507115027 20 293 3.2 6.4 0.10 1.19 0.86 95 1010.0
20260507114033 20 27 1.6 4.8 0.10 1.19 0.86 95 1009.7
20260507113025 20 252 3.2 12.9 0.10 1.19 0.86 95 1009.5
20260507112033 20 258 3.2 14.5 0.05 1.14 0.81 95 1009.7
20260507111023 20 3 1.6 6.4 0.00 1.09 0.76 95 1009.7
20260507110036 19 330 1.6 6.4 0.00 1.09 0.76 95 1009.5
20260507105024 19 312 0.0 6.4 0.00 1.09 0.76 94 1009.4
20260507104032 19 316 1.6 9.7 0.00 1.09 0.76 94 1009.7
20260507103047 19 338 1.6 6.4 0.08 1.09 0.76 95 1009.8
20260507102031 19 291 3.2 9.7 0.08 1.09 0.76 95 1009.8
20260507101107 19 35 1.6 6.4 0.13 1.09 0.76 96 1010.1
20260507100032 19 47 0.0 1.6 0.13 1.09 0.76 96 1010.2
20260507095026 19 64 0.0 1.6 0.15 1.09 0.76 96 1010.2
20260507094034 19 88 0.0 1.6 0.15 1.09 0.76 95 1010.2
20260507093029 19 269 1.6 3.2 0.10 1.02 0.69 95 1010.5
20260507092043 19 83 0.0 4.8 0.10 1.02 0.69 95 1010.6
20260507091028 19 101 1.6 4.8 0.13 0.97 0.64 95 1010.6
20260507090036 19 354 1.6 3.2 0.13 0.97 0.64 95 1010.6
20260507085026 19 66 0.0 1.6 0.10 0.94 0.61 95 1011.2
20260507084051 19 107 0.0 3.2 0.10 0.94 0.61 95 1010.9
20260507083029 19 96 0.0 1.6 0.08 0.91 0.58 95 1011.1
20260507082021 19 332 1.6 4.8 0.08 0.91 0.56 95 1011.4
20260507081027 19 37 0.0 1.6 0.00 0.84 0.48 95 1011.6
20260507080056 19 48 0.0 4.8 0.00 0.84 0.48 95 1011.5
20260507075027 19 32 0.0 1.6 0.00 0.84 0.48 95 1011.7
20260507074036 19 50 0.0 4.8 0.00 0.84 0.48 95 1011.5
20260507073027 19 0.0 1.6 0.00 0.84 0.48 95 1011.6
20260507072039 19 64 0.0 1.6 0.03 0.84 0.48 95 1011.4
20260507071027 19 0.0 0.0 0.05 0.84 0.48 95 1011.3
20260507070100 19 45 0.0 1.6 0.08 0.84 0.48 95 1011.3
20260507065024 19 46 0.0 1.6 0.10 0.84 0.48 94 1011.4
20260507064017 19 23 0.0 3.2 0.13 0.84 0.48 94 1011.4
20260507063026 19 66 0.0 1.6 0.13 0.84 0.48 94 1011.6
20260507062032 19 0.0 1.6 0.15 0.81 0.46 94 1011.7
20260507061026 20 71 1.6 4.8 0.20 0.79 0.43 94 1012.2
20260507060021 20 0.0 1.6 0.30 0.76 0.41 93 1012.3
20260507055025 20 36 1.6 3.2 0.33 0.74 0.38 93 1012.6
20260507054018 20 48 1.6 4.8 0.33 0.71 0.36 92 1012.6
20260507053055 20 349 1.6 4.8 0.33 0.71 0.36 93 1012.5
20260507052036 20 291 4.8 14.5 0.28 0.66 0.30 93 1013.0
20260507051030 20 4 1.6 9.7 0.23 0.58 0.23 92 1013.1
20260507050021 20 181 3.2 4.8 0.10 0.46 0.10 91 1013.3
20260507045024 20 279 4.8 12.9 0.05 0.41 0.05 90 1013.1
20260507044017 20 311 3.2 12.9 0.03 0.38 0.03 90 1012.7
20260507043027 20 130 0.0 9.7 0.03 0.38 0.03 90 1013.1
20260507042033 20 270 1.6 11.3 0.03 0.38 0.03 89 1013.2
20260507041027 20 277 1.6 6.4 0.00 0.36 0.00 90 1013.4
20260507040021 20 163 1.6 4.8 0.00 0.36 0.36 90 1013.3
20260507035024 20 48 1.6 3.2 0.00 0.36 0.36 90 1013.4
20260507034017 21 25 1.6 9.7 0.00 0.36 0.36 89 1013.4
20260507033028 21 271 4.8 12.9 0.00 0.36 0.36 88 1012.7
20260507032033 21 326 3.2 9.7 0.00 0.36 0.36 88 1012.6
20260507031025 21 284 3.2 12.9 0.05 0.36 0.36 88 1013.2
20260507030021 21 268 4.8 9.7 0.05 0.36 0.36 89 1014.0
20260507025024 21 345 1.6 9.7 0.10 0.36 0.36 90 1013.7
20260507024016 21 304 3.2 6.4 0.20 0.36 0.36 90 1013.3
20260507023028 21 69 0.0 1.6 0.23 0.36 0.36 90 1013.0
20260507022100 21 77 0.0 4.8 0.25 0.36 0.36 89 1013.2
20260507021047 21 299 1.6 3.2 0.23 0.30 0.30 87 1013.0
20260507020020 21 84 0.0 3.2 0.23 0.30 0.30 86 1012.6
20260507015028 22 276 3.2 11.3 0.18 0.25 0.25 82 1013.3
20260507014016 22 56 1.6 3.2 0.08 0.15 0.15 81 1013.0
20260507013024 22 334 1.6 3.2 0.08 0.13 0.13 81 1013.1
20260507012031 23 3 3.2 4.8 0.05 0.10 0.10 78 1013.3
20260507011024 23 260 1.6 6.4 0.03 0.08 0.08 76 1013.3
20260507010039 23 2 1.6 4.8 0.03 0.08 0.08 78 1013.3
20260507005027 22 76 1.6 6.4 0.03 0.08 0.08 82 1013.3
20260507004059 22 70 0.0 3.2 0.03 0.08 0.08 83 1012.9
20260507003025 22 15 1.6 3.2 0.00 0.05 0.05 83 1013.2
20260507002031 22 76 0.0 1.6 0.00 0.05 0.05 84 1013.3
20260507001028 22 92 0.0 1.6 0.00 0.05 0.05 84 1013.0
20260507000018 22 0.0 0.0 0.00 0.05 0.05 84 1013.1
20260506235028 22 74 0.0 1.6 0.00 0.05 0.05 83 1012.8
20260506234036 23 63 1.6 4.8 0.00 0.05 0.05 79 1012.6
20260506233028 23 14 1.6 4.8 0.05 0.05 0.05 77 1012.6
20260506232035 23 342 1.6 6.4 0.05 0.05 0.05 76 1012.6
20260506231024 23 262 4.8 14.5 0.05 0.05 0.05 77 1012.7
20260506230021 22 321 1.6 11.3 0.05 0.05 0.05 84 1012.4
20260506225027 22 50 0.0 1.6 0.05 0.05 0.05 82 1012.3
20260506224020 23 57 1.6 3.2 0.05 0.05 0.05 77 1012.7
20260506223025 25 315 3.2 9.7 0.00 0.00 0.00 71 1012.8
20260506222035 25 274 4.8 14.5 0.00 0.00 0.00 63 1012.9
20260506221028 26 270 3.2 12.9 0.00 0.00 0.00 62 1012.6
20260506220040 26 273 3.2 11.3 0.00 0.00 0.00 61 1012.6
20260506215023 26 295 3.2 11.3 0.00 0.00 0.00 61 1012.4
20260506214041 26 264 6.4 20.9 0.00 0.00 0.00 61 1012.3
20260506213027 26 247 4.8 14.5 0.00 0.00 0.00 61 1012.6
20260506212035 26 267 4.8 16.1 0.00 0.00 0.00 60 1012.6
20260506211047 26 275 6.4 20.9 0.00 0.00 0.00 60 1012.6
20260506210017 27 357 1.6 9.7 0.00 0.00 0.00 59 1012.8
20260506205027 26 319 3.2 20.9 0.00 0.00 0.00 60 1013.0
20260506204020 27 167 3.2 11.3 0.00 0.00 0.00 58 1013.3
20260506203030 26 280 3.2 6.4 0.00 0.00 0.00 60 1013.3
20260506202056 26 290 3.2 12.9 0.00 0.00 0.00 60 1013.8
20260506201025 26 271 4.8 12.9 0.00 0.00 0.00 57 1013.9
20260506200037 27 265 8.0 16.1 0.00 0.00 0.00 56 1014.0
20260506195025 27 267 6.4 20.9 0.00 0.00 0.00 54 1014.1
20260506194036 27 256 6.4 17.7 0.00 0.00 0.00 53 1014.2
20260506193028 27 267 4.8 14.5 0.00 0.00 0.00 53 1014.1
20260506192035 27 263 6.4 14.5 0.00 0.00 0.00 53 1014.6
20260506191025 27 282 6.4 17.7 0.00 0.00 0.00 52 1014.7
20260506190020 27 279 4.8 17.7 0.00 0.00 0.00 53 1014.7
20260506185025 26 265 4.8 12.9 0.00 0.00 0.00 55 1014.9
20260506184022 26 303 4.8 16.1 0.00 0.00 0.00 56 1015.1
20260506183028 26 250 4.8 11.3 0.00 0.00 0.00 57 1015.1
20260506182034 25 288 4.8 14.5 0.00 0.00 0.00 59 1015.2
20260506181024 25 296 4.8 17.7 0.00 0.00 0.00 59 1015.1
20260506180034 25 267 4.8 11.3 0.00 0.00 0.00 59 1015.2
20260506175026 26 268 6.4 17.7 0.00 0.00 0.00 57 1015.0
20260506174101 26 289 4.8 16.1 0.00 0.00 0.00 56 1015.0
20260506173025 27 38 3.2 11.3 0.00 0.00 0.00 54 1014.8
20260506172054 26 237 4.8 14.5 0.00 0.00 0.00 55 1014.7
20260506171028 26 278 4.8 11.3 0.00 0.00 0.00 57 1015.1
20260506170036 26 294 4.8 11.3 0.00 0.00 0.00 57 1015.2
20260506165024 25 274 6.4 20.9 0.00 0.00 0.00 58 1015.2
20260506164036 25 297 4.8 16.1 0.00 0.00 0.00 59 1015.3
20260506163028 25 259 4.8 16.1 0.00 0.00 0.00 60 1015.7
20260506162036 25 218 3.2 9.7 0.00 0.00 0.00 60 1015.8
20260506161027 24 295 3.2 14.5 0.00 0.00 0.00 62 1015.8